GW7121 Weather Reports


time (UTC)temp
C
wind
direction
speed
KPH
gust
KPH
rain 1hr
cm
rain 24hr
cm
rain mn
cm
humidity
%
barometer
mb
20260901231641 24 306 3.2 12.9 0.00 0.00 0.00 45 1016.8
20260901231137 24 311 0.0 0.0 0.00 0.00 0.00 46 1016.8
20260901230633 23 315 3.2 8.0 0.00 0.00 0.00 46 1017.1
20260901230132 23 321 1.6 6.4 0.00 0.00 0.00 47 1017.1
20260901225628 23 321 0.0 0.0 0.00 0.00 0.00 47 1016.8
20260901225128 23 321 0.0 0.0 0.00 0.00 0.00 46 1016.8
20260901224624 23 321 0.0 3.2 0.00 0.00 0.00 46 1017.1
20260901224120 23 276 0.0 0.0 0.00 0.00 0.00 46 1017.1
20260901223615 23 276 0.0 3.2 0.00 0.00 0.00 46 1017.1
20260901223110 23 292 0.0 6.4 0.00 0.00 0.00 45 1017.1
20260901222606 23 266 0.0 0.0 0.00 0.00 0.00 45 1017.1
20260901222101 23 298 0.0 3.2 0.00 0.00 0.00 45 1017.1
20260901221558 23 298 0.0 6.4 0.00 0.00 0.00 45 1017.1
20260901221053 23 298 0.0 0.0 0.00 0.00 0.00 46 1017.1
20260901220552 23 286 0.0 3.2 0.00 0.00 0.00 45 1017.5
20260901220051 23 296 0.0 3.2 0.00 0.00 0.00 45 1017.5
20260901215549 23 300 3.2 9.7 0.00 0.00 0.00 45 1017.5
20260901215044 23 308 0.0 3.2 0.00 0.00 0.00 46 1017.5
20260901214544 23 313 1.6 6.4 0.00 0.00 0.00 45 1017.5
20260901214044 23 310 1.6 8.0 0.00 0.00 0.00 45 1017.5
20260901213544 23 318 0.0 0.0 0.00 0.00 0.00 45 1017.5
20260901213044 23 316 0.0 3.2 0.00 0.00 0.00 45 1017.5
20260901212543 23 316 1.6 6.4 0.00 0.00 0.00 45 1017.5
20260901212041 23 302 3.2 8.0 0.00 0.00 0.00 45 1017.5
20260901211541 23 287 0.0 4.8 0.00 0.00 0.00 45 1017.5
20260901211037 23 296 4.8 11.3 0.00 0.00 0.00 45 1017.5
20260901210532 23 297 0.0 3.2 0.00 0.00 0.00 45 1017.5
20260901210029 23 292 3.2 9.7 0.00 0.00 0.00 46 1017.5
20260901205523 23 280 0.0 0.0 0.00 0.00 0.00 46 1017.5
20260901205018 23 280 0.0 3.2 0.00 0.00 0.00 46 1017.8
20260901204515 23 280 0.0 0.0 0.00 0.00 0.00 46 1017.8
20260901204015 23 288 1.6 9.7 0.00 0.00 0.00 46 1017.8
20260901203509 23 307 3.2 6.4 0.00 0.00 0.00 46 1017.8
20260901203004 23 307 0.0 0.0 0.00 0.00 0.00 47 1017.8
20260901202459 23 305 1.6 6.4 0.00 0.00 0.00 48 1017.8
20260901201955 22 302 0.0 0.0 0.00 0.00 0.00 47 1017.8
20260901201449 22 302 0.0 4.8 0.00 0.00 0.00 48 1018.1
20260901200944 22 302 0.0 3.2 0.00 0.00 0.00 48 1018.1
20260901200438 22 294 3.2 8.0 0.00 0.00 0.00 48 1017.8
20260901195938 22 281 1.6 6.4 0.00 0.00 0.00 48 1017.8
20260901195437 22 307 0.0 1.6 0.00 0.00 0.00 49 1018.1
20260901194931 22 307 1.6 6.4 0.00 0.00 0.00 49 1018.1
20260901194426 22 279 0.0 4.8 0.00 0.00 0.00 49 1018.1
20260901193923 22 279 1.6 4.8 0.00 0.00 0.00 48 1018.1
20260901193421 23 288 0.0 4.8 0.00 0.00 0.00 48 1018.1
20260901192921 22 311 0.0 3.2 0.00 0.00 0.00 49 1018.5
20260901192417 22 308 0.0 0.0 0.00 0.00 0.00 50 1018.1
20260901191913 22 308 0.0 1.6 0.00 0.00 0.00 50 1018.1
20260901191408 22 308 0.0 4.8 0.00 0.00 0.00 50 1018.1
20260901190905 22 302 0.0 6.4 0.00 0.00 0.00 50 1018.1
20260901190405 22 302 0.0 0.0 0.00 0.00 0.00 50 1018.5
20260901185903 22 302 1.6 4.8 0.00 0.00 0.00 50 1018.1
20260901185401 22 302 0.0 3.2 0.00 0.00 0.00 51 1018.1
20260901184857 22 294 0.0 3.2 0.00 0.00 0.00 52 1018.1
20260901184352 21 293 0.0 4.8 0.00 0.00 0.00 53 1018.5
20260901183848 21 293 0.0 0.0 0.00 0.00 0.00 53 1018.5
20260901183347 21 293 0.0 0.0 0.00 0.00 0.00 53 1018.5
20260901182843 21 293 0.0 3.2 0.00 0.00 0.00 53 1018.5
20260901182343 21 293 0.0 3.2 0.00 0.00 0.00 53 1018.5
20260901181838 21 293 1.6 4.8 0.00 0.00 0.00 54 1018.5
20260901181333 21 290 0.0 4.8 0.00 0.00 0.00 54 1018.5
20260901180832 21 290 0.0 0.0 0.00 0.00 0.00 54 1018.5
20260901180331 21 312 0.0 4.8 0.00 0.00 0.00 54 1018.5
20260901175831 20 312 0.0 3.2 0.00 0.00 0.00 55 1018.8
20260901175331 20 302 3.2 11.3 0.00 0.00 0.00 55 1018.5
20260901174826 20 297 0.0 0.0 0.00 0.00 0.00 55 1018.5
20260901174321 20 300 0.0 6.4 0.00 0.00 0.00 56 1018.5
20260901173817 20 302 0.0 6.4 0.00 0.00 0.00 57 1018.5
20260901173312 20 296 0.0 0.0 0.00 0.00 0.00 58 1018.5
20260901172809 20 296 0.0 0.0 0.00 0.00 0.00 59 1018.8
20260901172307 19 296 1.6 4.8 0.00 0.00 0.00 59 1018.8
20260901171806 19 296 0.0 1.6 0.00 0.00 0.00 59 1018.5
20260901171305 18 310 0.0 3.2 0.00 0.00 0.00 59 1018.5
20260901170805 18 311 1.6 8.0 0.00 0.00 0.00 59 1018.8
20260901170304 18 318 1.6 6.4 0.00 0.00 0.00 60 1018.8
20260901165803 18 319 0.0 1.6 0.00 0.00 0.00 60 1018.8
20260901165258 18 315 1.6 4.8 0.00 0.00 0.00 60 1019.2
20260901164755 18 321 0.0 6.4 0.00 0.00 0.00 61 1019.2
20260901164250 18 302 0.0 0.0 0.00 0.00 0.00 62 1019.2
20260901163745 17 302 0.0 0.0 0.00 0.00 0.00 63 1019.2
20260901163244 17 302 0.0 0.0 0.00 0.00 0.00 63 1019.2
20260901162740 17 302 0.0 0.0 0.00 0.00 0.00 64 1018.8
20260901162239 17 302 0.0 0.0 0.00 0.00 0.00 65 1018.8
20260901161738 17 302 0.0 0.0 0.00 0.00 0.00 65 1018.8
20260901161232 16 302 0.0 0.0 0.00 0.00 0.00 66 1018.8
20260901160729 16 302 0.0 4.8 0.00 0.00 0.00 67 1018.8
20260901160224 16 302 0.0 0.0 0.00 0.00 0.00 68 1018.8
20260901155723 16 302 0.0 0.0 0.00 0.00 0.00 68 1018.8
20260901155218 16 302 0.0 0.0 0.00 0.00 0.00 69 1018.8
20260901154714 15 302 0.0 0.0 0.00 0.00 0.00 70 1018.8
20260901154209 15 302 0.0 0.0 0.00 0.00 0.00 71 1018.5
20260901153704 15 302 0.0 0.0 0.00 0.00 0.00 73 1018.5
20260901153203 15 302 0.0 0.0 0.00 0.00 0.00 73 1018.5
20260901152658 15 302 0.0 0.0 0.00 0.00 0.00 74 1018.5
20260901152156 15 302 0.0 0.0 0.00 0.00 0.00 76 1018.5
20260901151653 14 302 0.0 0.0 0.00 0.00 0.00 77 1018.5
20260901151152 13 302 0.0 0.0 0.00 0.00 0.00 79 1018.1
20260901150651 13 302 0.0 0.0 0.00 0.00 0.00 80 1018.1
20260901150149 13 302 0.0 0.0 0.00 0.00 0.00 81 1018.1
20260901145648 13 302 0.0 0.0 0.00 0.00 0.00 81 1018.1
20260901145148 13 302 0.0 0.0 0.00 0.00 0.00 81 1018.1
20260901144643 13 302 0.0 0.0 0.00 0.00 0.00 81 1018.1
20260901144138 13 302 0.0 0.0 0.00 0.00 0.00 81 1018.1
20260901143633 12 302 0.0 0.0 0.00 0.00 0.00 82 1018.1
20260901143130 12 302 0.0 0.0 0.00 0.00 0.00 82 1017.8
20260901142626 12 302 0.0 0.0 0.00 0.00 0.00 82 1017.8
20260901142125 12 302 0.0 0.0 0.00 0.00 0.00 82 1017.8
20260901141619 12 302 0.0 0.0 0.00 0.00 0.00 83 1017.5
20260901141114 12 302 0.0 0.0 0.00 0.00 0.00 83 1017.5
20260901140613 12 302 0.0 0.0 0.00 0.00 0.00 83 1017.5
20260901140112 12 302 0.0 0.0 0.00 0.00 0.00 83 1017.5
20260901135612 12 302 0.0 0.0 0.00 0.00 0.00 83 1017.5
20260901135107 12 302 0.0 0.0 0.00 0.00 0.00 83 1017.5
20260901134603 12 302 0.0 0.0 0.00 0.00 0.00 83 1017.5
20260901134058 12 302 0.0 0.0 0.00 0.00 0.00 83 1017.5
20260901133557 12 302 0.0 0.0 0.00 0.00 0.00 83 1017.5
20260901133056 12 302 0.0 0.0 0.00 0.00 0.00 83 1017.5
20260901132550 12 302 0.0 0.0 0.00 0.00 0.00 82 1017.1
20260901132045 12 302 0.0 0.0 0.00 0.00 0.00 82 1017.1
20260901131544 12 302 0.0 0.0 0.00 0.00 0.00 81 1017.1
20260901131040 12 302 0.0 0.0 0.00 0.00 0.00 81 1017.1
20260901130540 13 302 0.0 0.0 0.00 0.00 0.00 81 1017.1
20260901130038 13 302 0.0 0.0 0.00 0.00 0.00 80 1016.8
20260901125114 13 302 0.0 0.0 0.00 0.00 0.00 80 1016.8
20260901124613 13 302 0.0 0.0 0.00 0.00 0.00 80 1016.8
20260901124108 13 302 0.0 0.0 0.00 0.00 0.00 80 1016.8
20260901123603 13 302 0.0 0.0 0.00 0.00 0.00 79 1016.8
20260901123102 13 302 0.0 0.0 0.00 0.00 0.00 79 1017.1
20260901122601 13 302 0.0 0.0 0.00 0.00 0.00 78 1017.1
20260901122100 13 302 0.0 0.0 0.00 0.00 0.00 78 1017.1
20260901121555 13 302 0.0 0.0 0.00 0.00 0.00 78 1016.8
20260901121050 13 302 0.0 0.0 0.00 0.00 0.00 78 1016.8
20260901120550 13 302 0.0 0.0 0.00 0.00 0.00 78 1016.8
20260901120046 13 302 0.0 3.2 0.00 0.00 0.00 78 1016.8
20260901115541 13 302 0.0 0.0 0.00 0.00 0.00 78 1016.8
20260901115038 13 302 0.0 0.0 0.00 0.00 0.00 78 1016.8
20260901114534 13 302 0.0 0.0 0.00 0.00 0.00 78 1016.5
20260901114032 13 302 0.0 0.0 0.00 0.00 0.00 78 1016.5
20260901113531 13 302 0.0 0.0 0.00 0.00 0.00 77 1016.5
20260901113028 13 302 0.0 0.0 0.00 0.00 0.00 77 1016.5
20260901112527 13 302 0.0 0.0 0.00 0.00 0.00 78 1016.5
20260901112022 13 302 0.0 0.0 0.00 0.00 0.00 77 1016.5
20260901111521 13 302 0.0 0.0 0.00 0.00 0.00 77 1016.5
20260901111019 13 302 0.0 0.0 0.00 0.00 0.00 77 1016.5
20260901110515 13 302 0.0 0.0 0.00 0.00 0.00 77 1016.1
20260901110011 14 302 0.0 0.0 0.00 0.00 0.00 77 1016.1
20260901105507 14 302 0.0 0.0 0.00 0.00 0.00 77 1016.1
20260901105006 14 302 0.0 0.0 0.00 0.00 0.00 77 1016.1
20260901104502 14 302 0.0 0.0 0.00 0.00 0.00 77 1016.1
20260901103957 14 302 0.0 0.0 0.00 0.00 0.00 77 1016.1
20260901103452 14 302 0.0 0.0 0.00 0.00 0.00 77 1016.1
20260901102948 14 302 0.0 0.0 0.00 0.00 0.00 77 1016.1
20260901102447 14 302 0.0 1.6 0.00 0.00 0.00 76 1016.1
20260901101943 14 302 0.0 4.8 0.00 0.00 0.00 76 1016.1
20260901101438 14 302 0.0 0.0 0.00 0.00 0.00 76 1016.1
20260901100937 14 302 0.0 0.0 0.00 0.00 0.00 76 1016.1
20260901100432 14 302 0.0 1.6 0.00 0.00 0.00 75 1016.1
20260901095932 15 302 0.0 4.8 0.00 0.00 0.00 75 1016.1
20260901095431 15 302 0.0 6.4 0.00 0.00 0.00 75 1016.1
20260901094929 15 302 1.6 6.4 0.00 0.00 0.00 75 1016.1
20260901094429 15 302 1.6 6.4 0.00 0.00 0.00 74 1016.1
20260901093930 15 302 1.6 6.4 0.00 0.00 0.00 74 1016.1
20260901093429 15 302 0.0 4.8 0.00 0.00 0.00 74 1016.1
20260901092924 15 302 1.6 6.4 0.00 0.00 0.00 74 1016.1
20260901092420 15 302 1.6 6.4 0.00 0.00 0.00 74 1016.1
20260901091916 15 302 0.0 4.8 0.00 0.00 0.00 74 1016.1
20260901091416 15 302 1.6 4.8 0.00 0.00 0.00 74 1016.1
20260901090911 15 302 1.6 6.4 0.00 0.00 0.00 73 1016.1
20260901090411 15 302 1.6 4.8 0.00 0.00 0.00 73 1016.1
20260901085907 15 302 1.6 8.0 0.00 0.00 0.00 73 1016.1
20260901085402 15 298 3.2 9.7 0.00 0.00 0.00 73 1016.1
20260901084859 15 302 0.0 6.4 0.00 0.00 0.00 73 1016.1
20260901084354 15 302 1.6 3.2 0.00 0.00 0.00 73 1016.1
20260901083849 15 300 1.6 8.0 0.00 0.00 0.00 73 1016.1
20260901083349 15 305 3.2 9.7 0.00 0.00 0.00 73 1016.1
20260901082848 15 305 1.6 6.4 0.00 0.00 0.00 73 1016.1
20260901082343 15 302 1.6 3.2 0.00 0.00 0.00 74 1016.1
20260901081838 15 302 3.2 6.4 0.00 0.00 0.00 73 1016.1
20260901081334 15 290 1.6 8.0 0.00 0.00 0.00 73 1016.1
20260901080834 15 312 0.0 4.8 0.00 0.00 0.00 73 1016.1
20260901080334 15 311 0.0 0.0 0.00 0.00 0.00 73 1016.1
20260901075828 15 306 0.0 4.8 0.00 0.00 0.00 73 1016.1
20260901075323 15 327 0.0 3.2 0.00 0.00 0.00 73 1016.1
20260901074818 15 327 1.6 4.8 0.00 0.00 0.00 73 1016.1
20260901074313 15 327 0.0 4.8 0.00 0.00 0.00 72 1016.1
20260901073808 15 327 0.0 3.2 0.00 0.00 0.00 72 1016.1
20260901073304 15 327 0.0 0.0 0.00 0.00 0.00 72 1016.1
20260901072800 15 302 1.6 6.4 0.00 0.00 0.00 72 1016.1
20260901072259 15 305 0.0 4.8 0.00 0.00 0.00 72 1016.1
20260901071754 15 305 0.0 0.0 0.00 0.00 0.00 71 1016.1
20260901071253 15 305 1.6 8.0 0.00 0.00 0.00 71 1016.1
20260901070752 15 285 1.6 11.3 0.00 0.00 0.00 71 1016.1
20260901070248 16 325 3.2 8.0 0.00 0.00 0.00 71 1016.1
20260901065747 16 292 1.6 6.4 0.00 0.00 0.00 71 1016.1
20260901065242 16 302 1.6 11.3 0.00 0.00 0.00 71 1016.1
20260901064738 16 307 1.6 6.4 0.00 0.00 0.00 71 1016.1
20260901064235 16 302 6.4 12.9 0.00 0.00 0.00 71 1016.1
20260901063732 16 300 1.6 6.4 0.00 0.00 0.00 71 1015.8
20260901063227 16 313 1.6 6.4 0.00 0.00 0.00 71 1015.8
20260901062723 16 296 0.0 3.2 0.00 0.00 0.00 71 1015.8
20260901062219 16 290 3.2 12.9 0.00 0.00 0.00 71 1015.8
20260901061715 16 310 3.2 12.9 0.00 0.00 0.00 71 1015.8
20260901061214 16 307 0.0 4.8 0.00 0.00 0.00 71 1015.8
20260901060709 16 301 3.2 11.3 0.00 0.00 0.00 71 1015.8
20260901060205 16 284 1.6 6.4 0.00 0.00 0.00 71 1015.8
20260901055700 16 298 1.6 9.7 0.00 0.00 0.00 71 1015.8
20260901055157 16 321 0.0 3.2 0.00 0.00 0.00 70 1015.8
20260901054653 16 324 0.0 6.4 0.00 0.00 0.00 70 1015.8
20260901054149 16 316 3.2 8.0 0.00 0.00 0.00 70 1015.8
20260901053645 16 297 3.2 12.9 0.00 0.00 0.00 70 1015.8
20260901053141 16 311 1.6 4.8 0.00 0.00 0.00 70 1015.8
20260901052636 16 311 0.0 6.4 0.00 0.00 0.00 70 1015.8
20260901052131 16 303 1.6 6.4 0.00 0.00 0.00 70 1015.8
20260901051631 16 310 1.6 6.4 0.00 0.00 0.00 70 1015.8
20260901051130 16 305 1.6 6.4 0.00 0.00 0.00 69 1015.4
20260901050625 16 302 3.2 9.7 0.00 0.00 0.00 69 1015.4
20260901050121 16 284 3.2 8.0 0.00 0.00 0.00 69 1015.4
20260901045621 16 330 0.0 4.8 0.00 0.00 0.00 69 1015.4
20260901045116 17 279 3.2 11.3 0.00 0.00 0.00 69 1015.4
20260901044611 17 298 1.6 6.4 0.00 0.00 0.00 69 1015.4
20260901044107 17 300 1.6 6.4 0.00 0.00 0.00 69 1015.4
20260901043603 17 298 3.2 11.3 0.00 0.00 0.00 68 1015.4
20260901043058 17 302 1.6 14.5 0.00 0.00 0.00 68 1015.4
20260901042557 17 311 0.0 3.2 0.00 0.00 0.00 68 1015.4
20260901042053 17 303 1.6 4.8 0.00 0.00 0.00 68 1015.4
20260901041548 17 287 1.6 6.4 0.00 0.00 0.00 68 1015.1
20260901041048 17 284 4.8 11.3 0.00 0.00 0.00 67 1015.1
20260901040548 17 309 3.2 11.3 0.00 0.00 0.00 67 1015.1
20260901040043 17 308 0.0 4.8 0.00 0.00 0.00 67 1014.8
20260901035540 17 298 6.4 12.9 0.00 0.00 0.00 67 1014.8
20260901035039 17 298 3.2 8.0 0.00 0.00 0.00 66 1014.8
20260901034539 18 301 3.2 9.7 0.00 0.00 0.00 66 1014.8
20260901034034 18 301 3.2 11.3 0.00 0.00 0.00 66 1014.8
20260901033533 18 294 4.8 11.3 0.00 0.00 0.00 65 1014.4
20260901033033 18 311 3.2 9.7 0.00 0.00 0.00 65 1014.4
20260901032532 18 303 3.2 6.4 0.00 0.00 0.00 64 1014.1
20260901032027 18 302 3.2 16.1 0.00 0.00 0.00 64 1014.1
20260901031522 18 294 6.4 12.9 0.00 0.00 0.00 63 1014.1
20260901031018 19 295 4.8 11.3 0.00 0.00 0.00 63 1014.1
20260901030518 19 298 6.4 11.3 0.00 0.00 0.00 62 1013.7
20260901030013 20 293 6.4 14.5 0.00 0.00 0.00 62 1013.7
20260901025513 20 311 4.8 11.3 0.00 0.00 0.00 62 1013.7
20260901025007 20 297 4.8 12.9 0.00 0.00 0.00 61 1013.7
20260901024502 20 300 4.8 11.3 0.00 0.00 0.00 61 1013.7
20260901024001 21 293 3.2 14.5 0.00 0.00 0.00 60 1013.7
20260901023500 21 310 0.0 0.0 0.00 0.00 0.00 60 1013.7
20260901022955 21 295 1.6 6.4 0.00 0.00 0.00 59 1013.7
20260901022451 21 306 3.2 8.0 0.00 0.00 0.00 58 1013.4
20260901021946 21 298 6.4 17.7 0.00 0.00 0.00 57 1013.4
20260901021442 22 297 4.8 12.9 0.00 0.00 0.00 56 1013.4
20260901020937 22 302 3.2 11.3 0.00 0.00 0.00 55 1013.4
20260901020432 22 296 4.8 12.9 0.00 0.00 0.00 54 1013.4
20260901015931 22 297 6.4 11.3 0.00 0.00 0.00 53 1013.4
20260901015428 22 307 3.2 11.3 0.00 0.00 0.00 52 1013.4
20260901014926 23 310 3.2 9.7 0.00 0.00 0.00 51 1013.1
20260901014424 23 288 6.4 16.1 0.00 0.00 0.00 51 1013.1
20260901013919 23 280 3.2 11.3 0.00 0.00 0.00 50 1013.1
20260901013414 23 293 3.2 9.7 0.00 0.00 0.00 50 1013.1
20260901012909 24 287 1.6 6.4 0.00 0.00 0.00 49 1013.1
20260901012404 24 283 4.8 16.1 0.00 0.00 0.00 49 1013.1
20260901011900 24 293 1.6 6.4 0.00 0.00 0.00 48 1013.1
20260901011355 24 290 3.2 17.7 0.00 0.00 0.00 48 1013.1
20260901010854 25 305 1.6 11.3 0.00 0.00 0.00 48 1013.1
20260901010349 24 319 1.6 4.8 0.00 0.00 0.00 47 1013.1
20260901005847 24 312 3.2 11.3 0.00 0.00 0.00 47 1013.1
20260901005343 25 297 3.2 6.4 0.00 0.00 0.00 47 1013.1
20260901004838 25 307 1.6 6.4 0.00 0.00 0.00 47 1013.1
20260901004337 25 288 1.6 9.7 0.00 0.00 0.00 47 1013.1
20260901003832 24 281 3.2 8.0 0.00 0.00 0.00 47 1013.1
20260901003328 24 297 3.2 9.7 0.00 0.00 0.00 47 1013.1
20260901002826 24 305 3.2 9.7 0.00 0.00 0.00 47 1013.1
20260901002320 25 297 3.2 6.4 0.00 0.00 0.00 47 1013.1
20260901001820 25 290 3.2 9.7 0.00 0.00 0.00 46 1013.1
20260901001316 25 288 3.2 12.9 0.00 0.00 0.00 46 1013.1
20260901000816 25 288 4.8 11.3 0.00 0.00 0.00 46 1013.1
20260901000314 25 298 3.2 4.8 0.00 0.00 0.00 47 1013.1
20260831235810 25 296 3.2 9.7 0.00 0.00 0.00 46 1013.1
20260831235306 25 305 1.6 6.4 0.00 0.00 0.00 46 1013.1
20260831234801 25 306 4.8 11.3 0.00 0.00 0.00 47 1013.1
20260831234301 25 293 3.2 9.7 0.00 0.00 0.00 48 1013.1
20260831233756 25 289 3.2 11.3 0.00 0.00 0.00 48 1013.4
20260831233251 25 298 4.8 9.7 0.00 0.00 0.00 47 1013.4
20260831232746 25 296 6.4 14.5 0.00 0.00 0.00 48 1013.4
20260831232243 25 294 4.8 14.5 0.00 0.00 0.00 47 1013.4